Location: Poughquag
(41.6090°N, 73.6820°W)
Time: 20:45:52
(UTC-04:00)

STARLINK-1337 - Pass Details

Date: 29 May 2020
Orbit: 379 x 380 km, 53.0° (Epoch: 04 July)

Event Time Altitude Azimuth Distance (km) Brightness Sun altitude
Rises 04:42:54 0° 301° (WNW) 2,254 6.5 -7.2°
Reaches altitude 10° 04:46:26 10° 343° (NNW) 1,403 6.0 -6.7°
Maximum altitude 04:47:10 11° 357° (N) 1,367 6.1 -6.6°
Drops below altitude 10° 04:47:55 10° 11° (N) 1,403 6.5 -6.5°
Sets 04:51:27 0° 53° (NE) 2,257 9.7 -5.9°
